星链-3947 (STARLINK-3947 )

导读

STARLINK-3947是美国SpaceX公司星链(Starlink)项目的卫星,于2022年5月14日发射升空。星链计划旨在构建全球低轨宽带互联网星座,为全球提供高速互联网接入服务。该卫星采用平板设计,搭载霍尔推进器等设备,具备自主避撞能力,寿命末期会主动离轨坠入大气层焚毁,是星链全球通信网络建设的重要组成部分。

基本信息
目录编号:
52607
目录名称:
STARLINK-3947
国际标识:
2022-052K
轨道中心:
EARTH
卫星名称:
星链-3947
卫星全名:
星链-3947 (STARLINK-3947 )
卫星状态:
在轨 (已飞行1495 天)
发射日期:
2022-05-14 UTC
国别 :
美国 (US)
星等 :
--
轨道信息
数据来源 国际轨道数据 AOE轨道数据
星历时间 2026-06-17T02:41:50+0800
18小时前
查看轨道信息
2026-06-14T03:00:00+0800
3天前
查看轨道信息
半长轴 6917.915km 6917.951km
偏心率 0.0001295 0.0001263
轨道倾角 53.160° 53.156°
近地点辐角 82.697° 68.118°
升交点赤经 199.207° 212.638°
平近点角 277.417° 256.211°
近地点 538.882km 538.94km
远地点 540.674km 540.688km
周期 95.438分钟 95.439分钟
每日圈数 15.08829 15.08817
详细信息
固有亮度:
5
最大亮度:
2.5
卫星平台:
Starlink v1.5
覆盖范围:
全球
运营商:
太空探索技术公司
运营商所在国:
美国
制造商(研发单位):
太空探索技术公司
制造商所在国:
美国
使用方式:
暂无
卫星简介
星链(Starlink)计划是由太空探索技术公司(SpaceX)提出的一个巨型低轨卫星互联网星座项目,计划在2019年至2024年间在太空搭建由约1.2万颗卫星组成的“星链”网络,其中1584颗将部署在地球上空550千米处的近地轨道,并从2020年开始工作。该卫星仍在工作。
2D轨道图
3D轨道图
轨道高度分析图
轨道倾角分析图
轨道综合分析图
查看轨道综合分析图